NOAA 16 DEB, 41538

Orbit data source: Space-Track

NOAA 16 DEB, 41538 is space debris in SSO originally from a launch on Thu, 21 Sep 2000 UTC launched from the Air Force Western Test Range (AFWTR). Debris objects in space refer to the collection of defunct objects orbiting the Earth. Examples of debris include non-operational satellites, rocket bodies, and fragments generated from explosions, collisions, or faulty payload assembly.

Loading next visibility...
Identifier
41538, 2000-055NN
Orbit
SSO
Country
Flag of USUS
Related business
Manufacturer
Unknown
Mission
Spacecraft
Bus & Motor
Unknown
Mass
Unknown
Launch date (UTC)
2000-09-21 (26 years ago)
Launch vehicle
Unknown
Launch site
Air Force Western Test Range (AFWTR)
Object type
Payload
Rocket body
Debris
Shape & HBR
Unknown shape, 0.1 m
Radar Cross Section
Small (<0.1 m²)

Expand to show TLE details & history
Last TLE update: 5 days ago

TLE from 5 days ago
0 NOAA 16 DEB
1 41538U 00055NN  26166.22555220  .00002715  00000-0  13276-2 0  9991
2 41538  98.7540 166.9383 0040626 280.4895  79.1704 14.18338669532339
Epoch: 2026-06-15T05:24Z
TLE epoch observation values (Epoch: 2026-06-15T05:24:47.710Z)
Latitude
-0.00002°
Longitude
-177.77548°
Altitude
828.499 km
Speed
7.442 km/s
True Right ascension
11h 07m 45s
True Declination
0° 00' 00"
Sunlit
Object was in daylight at epoch
Visualization orbit readout
Latitude
Unknown
Longitude
Unknown
Altitude
Unknown
Speed
Unknown
Apparent Right ascension
Unknown
Apparent Declination
Unknown
Sunlit
N/A
Visualization observer readout
Local Sidereal Time
12:50:02
Azimuth
Unknown
Elevation
Unknown
Doppler factor
Unknown
Orbital elements
Apogee altitude
857.416 km
Perigee altitude
798.863 km
Semi-major axis
7,206.277 km
Eccentricity
0.00406
Inclination
98.754°
RAAN
166.9383°
Arg. of periapsis
280.4895°
True anomaly
79.62808°
Mean anomaly
79.1704°
Eccentric anomaly
79.3992°
Mean motion
3.54794 °/min
Orbital period
101.47 mins
BSTAR
0.0013276
Loading maneuver chart data...
Computing Atmospheric mass density...
Loading historical data...
Loading historical data...
Loading historical data...
Loading historical data...
Loading historical data...
Loading historical data...
Loading historical data...

Documentation

Showing up to 5 results
|